{"data":{"norad_id":38953,"epoch":"2026-09-20T01:55:29.805312Z","epoch_age_seconds":44145,"freshness":"FRESH","line1":"1 38953U 12059A   26263.08020608 -.00000177  00000+0  00000+0 0  9992","line2":"2 38953   4.6558  72.4378 0006831 324.4089  74.9906  1.00269760 50862","mean_motion":1.0026976,"eccentricity":0.0006831,"inclination_deg":4.6558,"raan_deg":72.4378,"arg_perigee_deg":324.4089,"mean_anomaly_deg":74.9906,"bstar":0,"rev_number":5086,"period_min":1436.1259067539,"perigee_km":35758.359535562,"apogee_km":35815.965767946,"semimajor_km":42165.299651754,"source":"CELESTRAK","updated_at":"2026-09-20T09:00:46.672967Z"}}